GACFB EGEI-EGPO

Flight info

Callsign GACFB
Flight time 0h 35m
Altitude 3000
Route 572057N0054001W/N0111F040 572050N0054545W 572126N0054955W 573409N0055707W 575024N0060804W 580554N0061832W
Aircraft C172/L-SDFG/C

Departure

Time 2026-05-04 19:34
Airport Broadford Airstrip (EGEI)

Arrival

Time 2026-05-04 20:09
Airport Stornoway Airport (EGPO)
Time Latitude Longitude Altitude Speed Heading
2026-05-04 19:30 57.25374 -5.82442 27 ft 0 kts 234°
2026-05-04 19:31 57.25374 -5.82445 27 ft 0 kts 317°
2026-05-04 19:32 57.25382 -5.82455 27 ft 0 kts 324°
2026-05-04 19:32 57.25383 -5.82571 28 ft 24 kts 243°
2026-05-04 19:32 57.25259 -5.83007 32 ft 42 kts 241°
2026-05-04 19:33 57.25148 -5.83330 30 ft 11 kts 169°
2026-05-04 19:33 57.25170 -5.83259 31 ft 8 kts 62°
2026-05-04 19:33 57.25314 -5.82805 44 ft 69 kts 61°
2026-05-04 19:33 57.25595 -5.82029 269 ft 79 kts 42°
2026-05-04 19:34 57.26039 -5.81351 504 ft 88 kts 38°
2026-05-04 19:34 57.26533 -5.80606 738 ft 94 kts 39°
2026-05-04 19:34 57.27039 -5.79807 966 ft 98 kts 40°
2026-05-04 19:34 57.27563 -5.78956 1195 ft 101 kts 41°
2026-05-04 19:35 57.28087 -5.78092 1419 ft 102 kts 41°
2026-05-04 19:35 57.28618 -5.77210 1645 ft 103 kts 41°
2026-05-04 19:35 57.29150 -5.76321 1871 ft 103 kts 41°
2026-05-04 19:35 57.29673 -5.75445 2093 ft 103 kts 41°
2026-05-04 19:36 57.30207 -5.74551 2320 ft 102 kts 41°
2026-05-04 19:36 57.30730 -5.73672 2544 ft 102 kts 41°
2026-05-04 19:36 57.31247 -5.72804 2766 ft 101 kts 41°
2026-05-04 19:36 57.31775 -5.71918 2962 ft 104 kts 41°
2026-05-04 19:37 57.32341 -5.70967 3000 ft 117 kts 42°
2026-05-04 19:37 57.32963 -5.69918 3001 ft 123 kts 42°
2026-05-04 19:37 57.33598 -5.68844 3000 ft 124 kts 42°
2026-05-04 19:37 57.34348 -5.68125 2995 ft 124 kts
2026-05-04 19:38 57.35152 -5.68569 2996 ft 124 kts 322°
2026-05-04 19:38 57.35566 -5.69906 2996 ft 124 kts 278°
2026-05-04 19:38 57.35389 -5.71455 3000 ft 123 kts 245°
2026-05-04 19:38 57.35086 -5.72944 2999 ft 124 kts 253°
2026-05-04 19:39 57.34902 -5.74489 2999 ft 124 kts 260°
2026-05-04 19:39 57.34860 -5.76091 2999 ft 124 kts 275°
2026-05-04 19:39 57.34995 -5.77652 2999 ft 124 kts 281°
2026-05-04 19:39 57.35191 -5.79200 2999 ft 124 kts 284°
2026-05-04 19:40 57.35408 -5.80764 2999 ft 124 kts 284°
2026-05-04 19:40 57.35763 -5.82171 2997 ft 123 kts 310°
2026-05-04 19:40 57.36431 -5.83182 2998 ft 124 kts 329°
2026-05-04 19:40 57.37210 -5.83856 2999 ft 124 kts 338°
2026-05-04 19:41 57.38021 -5.84387 2999 ft 124 kts 341°
2026-05-04 19:41 57.38842 -5.84871 2999 ft 124 kts 342°
2026-05-04 19:41 57.39653 -5.85334 3000 ft 124 kts 342°
2026-05-04 19:41 57.40477 -5.85812 2999 ft 124 kts 342°
2026-05-04 19:42 57.41298 -5.86283 2999 ft 124 kts 342°
2026-05-04 19:42 57.42118 -5.86750 2999 ft 124 kts 343°
2026-05-04 19:42 57.42945 -5.87219 2999 ft 124 kts 343°
2026-05-04 19:42 57.43772 -5.87688 2999 ft 124 kts 343°
2026-05-04 19:43 57.44589 -5.88150 2999 ft 124 kts 343°
2026-05-04 19:43 57.45416 -5.88618 3000 ft 124 kts 343°
2026-05-04 19:43 57.46233 -5.89081 2999 ft 124 kts 343°
2026-05-04 19:43 57.47055 -5.89546 2999 ft 124 kts 343°
2026-05-04 19:44 57.47874 -5.90010 2999 ft 124 kts 343°
2026-05-04 19:44 57.48705 -5.90481 3000 ft 124 kts 343°
2026-05-04 19:44 57.49520 -5.90943 2999 ft 124 kts 343°
2026-05-04 19:44 57.50344 -5.91410 3000 ft 124 kts 343°
2026-05-04 19:45 57.51166 -5.91877 3000 ft 124 kts 343°
2026-05-04 19:45 57.51984 -5.92342 3000 ft 124 kts 343°
2026-05-04 19:45 57.52809 -5.92811 2999 ft 124 kts 343°
2026-05-04 19:45 57.53628 -5.93276 2999 ft 124 kts 343°
2026-05-04 19:46 57.54452 -5.93745 2999 ft 124 kts 343°
2026-05-04 19:46 57.55276 -5.94214 2999 ft 124 kts 343°
2026-05-04 19:46 57.56100 -5.94682 2999 ft 124 kts 343°
2026-05-04 19:46 57.56917 -5.95168 3000 ft 124 kts 341°
2026-05-04 19:47 57.57728 -5.95696 3000 ft 124 kts 340°
2026-05-04 19:47 57.58545 -5.96239 2999 ft 124 kts 340°
2026-05-04 19:47 57.59358 -5.96781 2999 ft 124 kts 340°
2026-05-04 19:47 57.60163 -5.97320 2999 ft 124 kts 340°
2026-05-04 19:48 57.60968 -5.97859 2999 ft 124 kts 340°
2026-05-04 19:48 57.61784 -5.98406 2999 ft 124 kts 340°
2026-05-04 19:48 57.62591 -5.98947 2999 ft 124 kts 340°
2026-05-04 19:48 57.63405 -5.99493 2999 ft 124 kts 340°
2026-05-04 19:49 57.64204 -6.00030 2999 ft 124 kts 340°
2026-05-04 19:49 57.65018 -6.00576 2999 ft 124 kts 340°
2026-05-04 19:49 57.65830 -6.01122 2999 ft 124 kts 340°
2026-05-04 19:49 57.66639 -6.01665 2999 ft 124 kts 340°
2026-05-04 19:50 57.67450 -6.02211 2999 ft 124 kts 340°
2026-05-04 19:50 57.68253 -6.02751 2999 ft 124 kts 340°
2026-05-04 19:50 57.69058 -6.03293 2999 ft 124 kts 340°
2026-05-04 19:50 57.69875 -6.03843 2999 ft 124 kts 340°
2026-05-04 19:51 57.70683 -6.04388 2999 ft 124 kts 340°
2026-05-04 19:51 57.71485 -6.04927 2999 ft 124 kts 340°
2026-05-04 19:51 57.72300 -6.05473 2999 ft 124 kts 340°
2026-05-04 19:51 57.73109 -6.06012 2999 ft 124 kts 340°
2026-05-04 19:52 57.73916 -6.06549 2999 ft 124 kts 340°
2026-05-04 19:52 57.74726 -6.07091 3000 ft 124 kts 340°
2026-05-04 19:52 57.75535 -6.07639 3000 ft 124 kts 340°
2026-05-04 19:52 57.76345 -6.08193 2999 ft 124 kts 340°
2026-05-04 19:53 57.77152 -6.08747 2999 ft 124 kts 340°
2026-05-04 19:53 57.77962 -6.09300 2999 ft 124 kts 340°
2026-05-04 19:53 57.78761 -6.09844 2999 ft 124 kts 340°
2026-05-04 19:53 57.79575 -6.10396 2999 ft 124 kts 340°
2026-05-04 19:54 57.80386 -6.10945 2999 ft 124 kts 340°
2026-05-04 19:54 57.81195 -6.11494 2999 ft 124 kts 340°
2026-05-04 19:54 57.81995 -6.12037 2999 ft 124 kts 340°
2026-05-04 19:54 57.82809 -6.12589 2999 ft 124 kts 340°
2026-05-04 19:55 57.83620 -6.13139 2999 ft 124 kts 340°
2026-05-04 19:55 57.84425 -6.13713 2999 ft 124 kts 334°
2026-05-04 19:55 57.85174 -6.14505 3000 ft 124 kts 330°
2026-05-04 19:55 57.85912 -6.15321 2999 ft 124 kts 330°
2026-05-04 19:56 57.86716 -6.15889 2999 ft 124 kts 342°
2026-05-04 19:56 57.87511 -6.16461 2999 ft 123 kts 334°
2026-05-04 19:56 57.88344 -6.16809 3000 ft 123 kts 352°
2026-05-04 19:56 57.89189 -6.17108 3000 ft 124 kts 347°
2026-05-04 19:57 57.90022 -6.17537 3000 ft 124 kts 343°
2026-05-04 19:57 57.90844 -6.18038 3000 ft 124 kts 341°
2026-05-04 19:57 57.91660 -6.18568 2968 ft 125 kts 341°
2026-05-04 19:57 57.92471 -6.19106 2792 ft 124 kts 341°
2026-05-04 19:58 57.93290 -6.19654 2615 ft 123 kts 340°
2026-05-04 19:58 57.94094 -6.20195 2440 ft 123 kts 340°
2026-05-04 19:58 57.94894 -6.20735 2265 ft 122 kts 340°
2026-05-04 19:58 57.95692 -6.21273 2091 ft 122 kts 340°
2026-05-04 19:59 57.96482 -6.21807 2009 ft 120 kts 340°
2026-05-04 19:59 57.97272 -6.22342 2001 ft 120 kts 340°
2026-05-04 19:59 57.98061 -6.22877 2000 ft 120 kts 340°
2026-05-04 19:59 57.98811 -6.23384 1998 ft 113 kts 340°
2026-05-04 20:00 57.99555 -6.23885 1888 ft 113 kts 340°
2026-05-04 20:00 58.00299 -6.24387 1749 ft 113 kts 340°
2026-05-04 20:00 58.01031 -6.24882 1548 ft 112 kts 340°
2026-05-04 20:00 58.01761 -6.25375 1348 ft 111 kts 340°
2026-05-04 20:01 58.02476 -6.25859 1149 ft 110 kts 340°
2026-05-04 20:01 58.03195 -6.26347 1017 ft 108 kts 340°
2026-05-04 20:01 58.03885 -6.26817 1115 ft 99 kts 340°
2026-05-04 20:01 58.04526 -6.27255 1189 ft 98 kts 340°
2026-05-04 20:02 58.05172 -6.27693 1198 ft 98 kts 340°
2026-05-04 20:02 58.05805 -6.28123 1195 ft 90 kts 341°
2026-05-04 20:02 58.06381 -6.28514 1199 ft 89 kts 340°
2026-05-04 20:02 58.06967 -6.28913 1200 ft 90 kts 340°
2026-05-04 20:03 58.07558 -6.29315 1200 ft 90 kts 340°
2026-05-04 20:03 58.08154 -6.29720 1167 ft 93 kts 340°
2026-05-04 20:03 58.08751 -6.30124 1024 ft 90 kts 340°
2026-05-04 20:03 58.09340 -6.30525 1002 ft 89 kts 340°
2026-05-04 20:04 58.09937 -6.30793 1005 ft 87 kts 351°
2026-05-04 20:04 58.10557 -6.30959 1010 ft 95 kts 353°
2026-05-04 20:04 58.11229 -6.31109 1010 ft 99 kts 354°
2026-05-04 20:04 58.11933 -6.31251 945 ft 106 kts 354°
2026-05-04 20:05 58.12573 -6.31374 999 ft 83 kts 354°
2026-05-04 20:05 58.13121 -6.31480 998 ft 79 kts 354°
2026-05-04 20:05 58.13672 -6.31588 1001 ft 81 kts 354°
2026-05-04 20:05 58.14250 -6.31700 1001 ft 83 kts 354°
2026-05-04 20:06 58.14817 -6.31808 1029 ft 82 kts 354°
2026-05-04 20:06 58.15390 -6.31918 984 ft 89 kts 354°
2026-05-04 20:06 58.15964 -6.32024 982 ft 74 kts 354°
2026-05-04 20:06 58.16443 -6.32115 989 ft 66 kts 354°
2026-05-04 20:07 58.16896 -6.32203 956 ft 65 kts 354°
2026-05-04 20:07 58.17313 -6.32296 967 ft 60 kts 349°
2026-05-04 20:07 58.17715 -6.32478 897 ft 65 kts 348°
2026-05-04 20:07 58.18189 -6.32671 727 ft 69 kts 352°
2026-05-04 20:08 58.18660 -6.32782 566 ft 66 kts 356°
2026-05-04 20:08 58.19080 -6.32771 478 ft 58 kts 18°
2026-05-04 20:08 58.19446 -6.32711 405 ft 51 kts 354°
2026-05-04 20:08 58.19799 -6.32790 276 ft 51 kts 354°
2026-05-04 20:09 58.20153 -6.32852 150 ft 51 kts 354°
2026-05-04 20:09 58.20506 -6.32909 44 ft 48 kts 356°
2026-05-04 20:09 58.20786 -6.32964 16 ft 14 kts 356°
2026-05-04 20:09 58.20914 -6.32944 14 ft 25 kts 49°
2026-05-04 20:10 58.20944 -6.32629 14 ft 23 kts 76°
2026-05-04 20:10 58.21075 -6.32542 16 ft 23 kts 356°
2026-05-04 20:10 58.21238 -6.32567 16 ft 18 kts 357°
2026-05-04 20:10 58.21296 -6.32466 18 ft 10 kts 24°
2026-05-04 20:11 58.21351 -6.32444 18 ft 0 kts 358°
2026-05-04 20:11 58.21352 -6.32446 18 ft 0 kts 266°